User: anonymous   Login
Location: Caltech
(34.1382°N, 118.1253°W)
Time: 11:49:02
(UTC-08:00)
Language:

Gbstr 26 Del rocket - Orbit

View from above orbital plane
View from above orbital plane
View from above satellite
View from above satellite

Ground track
Ground track

The orbit data is extracted from the following two-line orbital elements,

1 25876U 99041E   14326.74202892  .00003125  00000-0  57929-3 0  5241
2 25876 051.7661 052.6464 0538878 177.8209 323.3302 14.02598954782961
Epoch (UTC): 22 November 2014 17:48:31
Eccentricity: 0.0538878
inclination: 51.7661°
perigee height: 493 km
apogee height: 1276 km
right ascension of ascending node: 52.6464°
argument of perigee: 177.8209°
revolutions per day: 14.02598954
mean anomaly at epoch: 323.3302°
orbit number at epoch: 78296

The dashed part of the orbit path shows where the satellite is in the earth's shadow,  

DLR